Theta_e
316 317 321 321 323 324 325 330 331 335 331 323 326 328 324 327 331 326 327 328 330 327 324 330 334 335 337 344 345 340 338 343 345 342 343 340 337 340 339 338 337 335 336 333 327 325 325 328 331 333 335 335 334 332 332 332 333 334 336 336 337 337 336 337 337 337 336 334 333 334 334 333 332 332 332 332 331 331 331 331 331 331 331 331 331 331 331 331 332 331 331 331 329 328 328 329 331
316 318 321 319 323 320 325 335 330 331 331 324 327 325 321 327 329 327 328 329 329 325 327 335 337 338 338 338 339 341 340 338 339 339 338 337 339 340 339 338 335 335 335 328 323 321 322 326 331 334 335 335 333 332 331 332 333 334 336 337 336 336 335 335 335 336 336 335 333 333 333 332 333 333 332 332 332 331 331 331 331 331 331 332 331 331 331 331 331 331 331 330 329 327 328 330 331
316 319 321 320 323 321 329 336 328 327 324 325 329 322 322 330 329 329 330 330 329 325 329 334 334 333 337 342 341 343 342 336 337 337 337 338 340 340 340 337 334 336 331 323 320 318 320 328 332 333 334 334 334 334 334 333 334 335 336 336 336 335 334 334 334 335 335 334 333 332 332 332 332 331 331 330 331 331 331 330 330 330 331 331 331 331 331 330 330 330 330 330 329 327 329 330 330
317 321 320 320 324 329 335 331 333 330 321 323 324 319 326 332 330 330 331 331 330 327 328 329 331 330 338 346 341 341 340 336 337 337 337 338 339 340 339 335 336 336 327 321 319 316 321 329 331 332 333 331 330 334 335 335 335 335 336 336 336 335 333 333 334 334 334 333 333 332 331 332 331 331 331 331 331 331 331 330 330 330 330 331 331 331 331 330 330 330 330 330 329 328 329 330 329
318 321 319 320 324 331 331 326 333 328 319 324 320 321 328 329 331 330 328 327 327 329 328 329 333 331 337 341 338 341 339 337 337 337 337 337 339 340 337 336 337 334 326 321 318 317 322 329 331 331 330 330 330 331 332 335 335 335 335 336 335 333 332 333 333 333 333 333 332 331 331 331 330 331 331 331 331 330 330 330 329 329 330 330 330 330 330 330 329 330 329 329 329 328 328 329 329
319 320 321 320 318 324 328 324 329 327 324 329 322 326 329 327 330 328 326 324 324 327 330 335 335 336 339 337 337 339 336 338 338 336 338 338 340 339 336 336 337 334 326 320 318 318 322 328 330 330 331 332 333 332 332 334 335 335 335 335 334 332 331 332 332 332 332 331 331 330 330 330 330 330 330 331 331 331 330 330 330 330 330 330 330 330 330 330 329 329 328 328 328 327 327 329 328
319 321 326 322 320 327 330 324 330 330 322 325 326 327 327 325 326 325 326 324 324 325 331 338 335 339 340 336 338 337 334 336 336 337 338 339 340 338 336 336 337 334 326 320 319 318 321 325 328 330 332 333 334 334 333 333 334 335 335 335 334 332 331 332 332 331 331 330 330 330 330 329 329 330 331 331 331 330 329 330 331 331 330 330 330 330 330 330 329 329 328 327 326 326 327 328 328
320 321 327 330 329 329 328 324 331 331 317 321 326 325 325 325 324 324 325 324 326 325 327 330 333 342 338 337 343 337 334 336 336 338 338 339 339 338 337 337 337 334 326 320 319 319 321 323 326 329 331 332 333 334 334 333 333 333 335 335 334 333 332 332 332 330 330 329 330 330 328 329 330 330 331 331 330 329 328 328 329 329 330 330 330 329 329 329 329 328 327 326 325 324 326 328 327
319 317 325 330 327 328 331 326 323 322 318 323 323 322 325 323 323 323 323 323 324 324 323 326 335 345 338 340 343 335 335 336 337 338 338 339 338 337 337 338 338 333 325 320 320 318 320 322 325 327 328 330 331 332 333 334 333 334 334 334 335 334 332 331 330 329 329 328 329 328 327 328 330 330 331 331 330 329 327 326 326 327 328 328 329 329 328 328 328 327 326 326 324 323 326 327 326
321 319 324 328 326 323 326 330 324 318 319 322 321 323 325 321 321 321 322 323 322 322 323 330 339 343 339 341 340 335 335 337 337 338 338 339 338 337 337 338 337 333 325 320 320 318 318 320 321 324 326 328 330 330 331 333 334 334 333 332 332 331 331 330 329 328 328 329 328 328 328 328 329 330 330 330 330 329 327 327 326 325 324 326 327 327 327 327 328 327 325 325 323 324 326 326 326
327 325 326 328 329 322 324 332 326 321 319 318 319 322 322 318 319 320 322 322 322 323 326 335 340 338 339 342 340 335 335 337 338 337 338 338 337 337 336 337 337 335 328 321 320 319 318 317 318 320 323 328 330 329 330 332 332 332 331 330 330 330 330 330 328 328 327 328 329 328 327 329 329 329 330 330 330 329 328 328 327 324 323 324 325 326 327 328 327 325 324 322 322 324 326 326 325
325 330 335 330 330 325 328 330 321 321 319 318 319 318 318 316 319 322 323 323 322 325 326 333 339 338 340 342 340 335 336 337 337 337 337 338 337 336 336 337 337 336 330 323 320 320 318 317 316 316 321 327 330 330 329 330 331 331 330 330 330 330 330 328 328 328 325 326 328 328 328 328 328 329 329 329 330 329 328 327 327 325 324 324 325 326 326 326 325 324 323 321 321 322 324 325 325
327 333 335 327 332 330 326 324 320 322 318 320 320 317 318 316 322 323 323 324 322 322 319 326 335 338 341 340 338 335 335 336 336 337 336 337 337 336 335 336 337 336 332 325 321 320 320 317 316 315 318 324 329 329 328 329 330 330 329 329 329 327 327 326 328 329 326 325 326 327 328 327 325 327 328 328 330 329 328 328 327 325 324 323 324 325 324 324 325 324 322 321 321 321 322 323 324
328 337 333 323 331 331 325 322 320 321 318 323 321 317 319 317 319 319 321 323 320 319 317 327 336 340 342 338 338 337 336 335 336 336 335 336 336 335 335 336 337 336 335 329 323 321 321 319 317 315 316 320 326 327 327 327 327 329 328 327 324 321 323 324 327 327 326 325 325 326 327 327 324 324 326 327 328 328 327 328 327 323 319 319 320 321 321 320 320 320 319 319 321 321 321 322 322
324 340 338 326 328 327 327 322 319 322 320 324 320 318 320 316 317 316 320 322 319 318 317 327 332 335 341 339 340 337 335 336 336 337 336 335 335 335 335 336 337 336 336 332 326 322 321 320 318 316 316 318 321 322 323 323 323 326 325 324 321 319 319 321 323 323 321 321 322 325 326 326 324 322 324 326 327 327 327 327 326 322 318 317 316 316 316 316 315 315 316 317 319 319 320 321 321
331 344 335 327 328 325 327 323 320 322 322 324 320 319 319 315 317 316 317 319 319 323 325 327 324 328 337 339 338 334 335 337 336 337 336 336 335 336 336 337 337 336 336 334 330 325 321 321 320 318 317 317 317 317 318 318 319 322 322 322 321 320 319 318 319 317 315 315 316 320 324 325 324 322 323 325 326 326 326 326 325 322 319 317 315 315 315 315 315 315 315 315 316 317 317 318 319
332 339 331 327 329 327 328 324 319 323 324 324 319 319 320 316 316 314 316 322 325 332 337 334 329 332 335 335 334 333 336 336 335 337 337 337 337 338 338 337 337 337 336 335 334 330 323 321 321 321 318 317 316 316 315 315 317 318 320 321 321 320 318 316 316 314 315 318 318 318 320 322 323 322 322 323 324 324 323 323 322 320 318 316 315 315 316 315 315 315 315 315 316 317 316 316 316
325 329 329 326 329 330 331 326 320 323 322 320 319 320 320 317 316 314 319 327 329 335 339 337 336 335 332 331 333 334 335 334 335 338 337 338 338 338 338 338 338 338 336 335 336 334 328 323 321 322 321 319 317 317 316 315 316 316 317 318 319 318 317 315 314 316 321 325 325 322 320 319 319 319 319 319 320 320 320 319 318 317 316 316 316 316 316 316 316 318 319 319 320 320 320 319 319
327 332 327 328 335 332 327 324 320 321 319 319 320 319 318 319 316 316 323 325 329 342 339 336 341 337 332 332 334 335 334 334 335 337 338 337 338 338 338 338 338 338 338 337 336 336 333 328 324 321 323 323 321 319 318 317 316 316 316 316 317 317 317 315 314 320 325 326 327 326 324 322 320 318 316 317 316 316 316 316 316 316 316 317 316 316 316 316 317 319 321 321 322 322 321 321 321
328 330 324 332 339 329 320 319 319 319 319 319 319 317 318 319 315 316 323 323 328 344 343 342 343 337 335 333 332 334 333 333 334 336 337 336 337 338 338 338 338 338 338 338 337 337 335 332 329 324 324 326 326 323 321 320 318 317 316 316 316 316 316 315 316 322 327 327 327 327 326 325 324 321 317 314 314 314 314 313 314 314 315 316 317 316 315 316 316 317 319 320 321 321 321 321 321
322 324 328 336 329 322 318 317 319 318 317 319 319 317 317 316 315 315 320 322 324 330 336 344 343 336 336 334 332 333 333 332 333 335 335 335 337 337 338 338 338 338 338 338 338 338 337 335 333 331 329 329 329 328 328 327 323 319 318 317 316 316 316 315 317 323 327 327 328 328 326 326 325 324 319 313 312 312 312 313 313 314 314 315 316 316 316 315 315 315 316 317 319 319 320 320 320
318 321 331 331 319 316 318 317 317 317 316 318 318 317 316 315 314 315 318 323 323 322 326 335 337 335 335 334 332 332 332 332 332 333 334 335 335 336 337 337 338 338 338 339 338 338 338 337 336 334 333 332 331 330 330 331 328 324 320 318 318 317 317 318 318 324 328 327 328 328 326 327 325 325 321 314 313 311 311 312 312 314 314 315 316 316 317 316 316 315 315 316 317 318 318 318 318
318 320 324 322 317 316 318 317 316 316 317 317 317 317 315 315 314 313 317 322 321 317 321 330 335 333 334 333 332 333 332 332 331 332 332 333 334 335 336 337 338 338 338 339 338 338 338 338 337 335 335 334 333 331 330 330 329 327 324 322 322 320 320 323 322 323 327 327 327 327 326 326 325 324 320 315 317 315 313 313 314 315 315 315 314 315 316 316 316 315 316 316 317 317 317 317 316
318 320 320 317 317 317 317 317 316 316 317 317 316 316 315 317 316 312 315 318 317 314 316 328 334 331 333 333 332 333 332 332 332 332 332 333 334 335 336 337 338 338 338 338 338 338 338 338 337 336 335 334 334 333 331 330 328 328 329 327 327 325 325 327 326 323 325 326 327 327 326 327 326 324 321 317 318 319 317 317 318 318 317 316 315 315 315 316 315 314 315 315 316 316 316 315 314
317 320 320 316 316 317 316 316 317 316 316 315 315 316 316 316 315 314 316 316 315 317 320 329 334 331 333 334 333 332 331 332 332 333 332 333 333 334 335 336 337 337 337 338 338 338 338 338 338 337 336 335 334 333 331 330 328 329 331 331 329 329 328 329 329 327 325 324 325 326 326 327 326 322 322 322 320 320 319 320 321 321 320 320 319 318 317 317 316 315 314 314 315 315 315 315 315
318 318 319 317 316 315 314 314 316 316 315 314 316 317 315 314 313 315 317 313 316 324 329 334 334 333 335 334 333 331 331 332 332 333 332 332 333 332 333 334 335 336 336 337 338 338 338 338 338 337 337 335 334 334 332 330 330 329 330 332 331 330 329 329 330 330 329 326 325 326 325 325 324 322 323 325 324 323 321 321 322 322 322 322 322 321 320 319 318 317 316 315 315 315 315 315 315
319 317 317 316 315 314 314 315 315 316 315 314 317 316 314 314 313 316 316 312 320 331 334 335 335 335 335 333 333 332 331 332 332 333 332 332 333 332 333 333 334 335 334 335 336 338 338 338 338 337 337 336 335 335 333 331 331 330 330 332 332 331 330 330 330 330 330 330 328 328 327 324 323 325 326 326 326 326 324 323 322 323 323 322 322 322 321 321 320 319 318 316 316 316 316 316 316
317 316 315 314 314 314 314 315 315 315 314 315 317 315 314 315 314 319 317 311 323 335 335 334 336 335 334 334 333 331 331 332 333 333 332 332 332 332 332 333 333 334 334 334 335 336 337 338 338 337 337 336 336 336 333 331 331 331 330 332 332 331 330 330 330 330 330 330 330 330 329 327 325 325 326 326 326 326 326 325 324 324 324 323 323 322 322 322 321 321 320 318 318 317 317 317 317
315 316 315 314 314 315 315 315 316 315 314 316 317 314 314 316 315 318 315 313 323 333 335 334 335 334 333 334 332 332 331 332 332 332 332 332 333 333 333 333 333 333 333 334 333 335 336 337 337 337 337 336 336 335 334 332 331 331 330 331 332 331 331 330 330 330 330 330 330 330 330 329 327 326 326 326 326 326 326 326 325 325 325 325 324 324 323 323 323 323 322 321 320 319 319 319 319
314 314 315 316 314 315 316 314 315 315 314 315 315 315 318 318 317 315 312 313 323 331 334 333 333 333 333 332 332 332 330 331 332 332 333 333 333 333 333 333 333 333 333 333 334 333 334 336 337 337 337 337 336 336 335 333 332 332 331 331 331 332 331 331 330 330 330 330 330 330 329 329 329 328 326 326 326 327 326 326 326 326 326 326 325 325 324 324 324 324 323 323 322 322 321 322 322
314 313 315 318 317 318 317 314 315 314 312 314 312 316 321 318 317 317 312 313 322 330 331 329 330 330 330 332 332 332 331 330 332 332 333 333 333 333 333 333 333 334 333 333 334 334 333 334 336 336 336 336 336 336 335 334 333 333 333 332 331 332 331 331 331 330 330 330 330 329 329 329 329 328 328 327 326 327 327 326 326 326 326 326 326 326 325 325 324 324 324 324 324 323 324 324 324
314 315 317 316 316 318 318 314 316 315 312 313 311 315 320 317 318 316 311 312 318 324 324 322 323 323 325 328 329 331 331 330 331 332 333 333 333 333 333 333 334 334 334 334 334 334 334 334 335 336 336 336 335 336 335 334 334 333 333 333 332 332 331 331 331 331 330 330 330 330 330 329 329 329 328 328 327 327 327 327 327 327 326 326 326 326 326 325 325 325 325 324 324 324 324 324 325
314 318 321 318 315 317 316 314 316 317 314 312 312 316 318 316 315 312 311 312 314 317 318 318 318 318 319 323 326 329 329 330 330 331 332 333 333 334 333 334 334 334 334 335 334 334 334 333 335 335 335 335 335 335 335 334 334 333 333 333 333 332 331 331 331 331 331 329 329 330 330 330 329 329 328 328 328 327 327 327 327 327 327 326 326 326 326 326 326 326 325 324 324 325 324 324 325
315 319 324 320 316 316 316 316 316 317 315 313 313 315 317 316 314 312 311 312 313 314 316 317 317 316 316 319 324 326 328 330 329 329 332 332 333 334 334 334 334 335 335 335 334 334 334 333 334 334 334 335 335 335 335 334 334 334 333 334 333 332 331 331 332 331 331 330 330 329 329 329 329 328 328 328 327 326 327 327 327 327 327 326 326 327 327 326 326 326 325 325 325 325 325 325 325
319 319 321 319 316 315 316 316 315 315 314 314 314 313 316 318 316 314 312 311 313 314 313 314 315 316 316 319 324 326 327 328 327 328 331 332 333 333 334 335 335 335 335 335 335 334 334 334 333 333 334 334 335 335 335 334 334 334 334 334 334 333 332 332 332 332 331 331 330 329 329 329 329 329 328 328 326 326 326 325 326 326 326 326 326 326 326 326 326 325 325 325 325 326 325 326 325
323 323 323 320 317 316 318 318 316 315 314 315 315 314 315 316 316 315 313 312 313 312 311 310 312 314 316 318 322 325 327 327 325 326 329 331 332 333 333 335 335 335 335 335 334 334 334 334 333 333 333 334 334 335 335 334 334 335 334 334 334 334 333 333 332 332 331 331 331 330 330 329 329 329 328 328 328 327 327 326 327 327 326 325 325 325 326 325 325 325 325 325 326 326 326 326 326
319 323 324 320 317 317 319 319 316 314 315 315 314 314 314 315 317 315 312 312 313 313 312 312 312 313 315 318 321 325 326 324 322 323 327 329 331 333 333 334 334 335 335 335 334 334 334 334 333 333 333 334 334 334 335 334 334 334 334 334 334 334 333 333 333 332 332 332 332 331 331 330 329 329 329 329 329 329 329 329 328 328 327 326 325 324 324 324 325 325 325 326 326 326 326 326 326
316 320 321 319 318 317 315 316 316 313 314 315 313 313 314 315 315 314 311 312 314 313 313 313 312 311 313 315 319 322 322 320 318 319 323 328 330 331 333 333 334 334 334 335 334 334 334 334 334 334 333 334 334 334 334 333 333 333 333 334 334 334 333 333 332 332 332 331 331 331 331 331 331 331 331 331 331 330 330 329 328 329 328 327 327 326 325 325 326 327 327 327 327 327 326 326 325
315 317 320 321 320 317 313 313 316 314 314 316 315 314 314 315 314 313 312 312 313 312 312 312 312 312 312 313 316 318 319 319 320 318 318 324 328 330 332 333 333 334 334 334 334 334 334 334 334 334 334 334 334 334 333 332 332 332 333 333 333 333 333 332 332 332 332 331 331 330 330 331 331 331 331 331 331 331 331 329 327 327 328 327 328 328 327 327 327 327 327 327 327 327 326 325 325
315 317 319 321 319 317 315 313 315 314 313 315 318 317 315 315 314 316 314 312 312 313 312 312 312 313 312 312 313 315 317 319 321 320 317 320 326 328 330 332 333 333 333 333 333 334 334 334 334 333 334 334 334 333 333 332 331 332 333 332 331 331 332 331 332 331 331 332 331 330 331 331 331 331 331 331 330 330 330 329 327 328 328 328 328 327 327 326 327 327 327 327 327 326 325 325 325
315 317 318 320 319 318 317 315 315 313 312 313 316 317 320 319 315 317 316 311 312 312 313 313 312 314 315 313 312 314 316 317 320 324 320 317 322 327 329 331 332 332 332 333 333 333 334 334 334 334 333 334 334 333 333 332 332 333 333 332 331 331 332 332 331 331 331 330 330 330 331 331 331 332 331 331 331 330 329 328 329 329 329 329 328 327 328 327 327 328 327 327 327 326 325 325 325
314 318 319 318 318 319 319 317 315 314 314 315 313 314 326 329 317 314 313 312 314 312 313 314 312 314 317 317 316 316 317 317 319 321 319 316 320 325 328 330 330 332 332 332 333 333 333 334 333 334 334 333 334 333 333 333 333 333 333 333 332 332 331 331 331 330 330 329 329 330 331 331 332 332 331 331 331 331 329 329 330 330 329 328 327 326 327 326 326 326 325 326 325 324 324 323 324
313 318 319 316 316 319 320 317 317 317 317 315 312 314 323 326 318 315 313 312 315 314 314 315 313 313 317 319 320 321 320 319 319 317 314 313 318 321 323 327 329 331 332 332 332 333 332 333 333 334 334 333 333 333 333 333 333 333 333 333 333 332 331 331 330 330 330 330 330 330 331 331 332 331 331 330 329 328 327 327 327 327 327 327 326 325 325 325 325 325 324 323 323 323 323 322 323
317 320 318 316 316 319 319 316 321 323 317 315 317 317 316 316 316 317 313 311 313 313 314 316 314 313 317 319 321 325 324 322 321 322 316 310 312 317 320 324 328 329 331 331 332 332 332 333 333 333 333 333 333 333 333 333 333 332 332 332 332 331 331 330 330 330 330 330 329 329 329 329 329 329 328 327 326 325 325 325 325 325 325 325 325 324 324 323 323 323 322 322 322 322 322 322 321
321 320 316 316 315 318 318 317 324 324 315 316 320 315 312 319 324 318 312 312 314 313 314 315 314 314 317 321 324 328 329 325 324 327 320 311 309 314 317 320 322 324 326 327 329 330 331 332 333 333 333 333 333 333 333 333 333 332 332 332 331 331 330 330 330 329 329 328 327 327 327 327 327 326 326 325 324 324 323 323 323 323 323 323 322 322 322 322 321 321 321 320 320 320 320 320 319
320 318 318 319 318 319 318 320 325 319 313 319 321 314 311 321 330 320 310 313 317 315 313 312 313 314 318 323 327 331 330 327 327 322 314 311 312 312 313 314 315 316 317 319 320 323 327 330 331 333 333 333 333 333 333 333 332 332 331 331 330 330 329 328 328 328 327 326 326 326 326 325 325 325 325 324 323 323 322 321 320 319 320 319 319 319 318 318 318 318 318 318 318 317 317 318 317
317 320 320 319 322 327 329 333 329 315 317 328 325 317 311 315 326 322 313 316 318 316 314 313 313 315 319 323 326 329 329 327 328 321 311 310 313 313 312 312 312 312 312 312 312 315 321 325 328 331 332 332 333 333 333 333 332 332 331 331 330 329 328 328 327 326 326 326 325 325 324 324 324 323 323 322 321 320 318 317 316 316 316 316 316 315 314 313 313 312 313 313 313 314 314 315 315
318 326 322 317 325 331 332 332 324 315 323 328 322 316 312 314 323 321 316 317 316 315 316 316 315 315 319 323 322 324 326 327 326 323 315 310 310 312 312 313 312 312 312 310 310 312 318 322 325 329 330 331 332 332 332 332 331 331 330 330 330 329 328 328 327 326 325 325 324 324 323 322 322 321 320 319 318 317 316 316 317 316 315 316 316 315 314 313 310 309 309 309 309 309 310 311 311
317 323 319 317 324 322 321 323 320 320 322 317 314 314 314 316 319 318 318 317 315 314 312 314 316 318 321 322 322 321 322 325 323 322 321 313 308 311 312 312 312 312 312 311 310 312 317 323 325 327 328 329 330 331 331 330 330 329 329 329 329 329 328 327 326 325 324 324 323 322 321 320 319 318 317 317 317 316 316 315 315 314 313 313 312 312 312 312 309 308 308 307 306 306 306 307 307
314 316 315 320 324 317 315 319 318 320 320 313 311 313 317 319 316 315 317 315 314 315 314 313 315 318 321 320 321 320 319 321 321 321 322 315 307 310 312 312 313 312 313 312 310 312 317 322 325 326 327 328 329 329 329 329 329 328 328 328 328 327 326 326 325 324 323 322 321 320 319 318 317 317 316 316 315 313 311 309 309 308 308 308 307 307 308 308 307 307 306 306 305 305 304 304 303
315 318 317 322 328 323 319 321 321 322 321 315 310 314 322 321 314 313 314 312 313 318 319 316 315 318 319 319 320 320 319 319 318 318 318 311 307 311 313 313 314 313 314 313 311 314 318 321 324 325 326 326 327 327 327 327 327 327 327 326 326 325 325 324 323 322 322 320 318 317 317 316 315 315 314 311 309 307 306 306 306 306 305 305 305 304 304 304 303 303 303 303 302 302 301 300 299
318 318 318 320 323 327 324 320 326 327 320 316 313 318 326 319 311 312 312 313 316 319 320 318 320 320 320 322 322 320 320 318 316 318 316 309 307 312 314 315 316 315 315 315 313 315 319 321 323 324 324 325 325 326 326 326 325 325 325 324 324 324 323 322 321 320 319 317 315 314 315 314 312 310 308 306 305 305 305 305 304 303 303 302 302 301 300 300 299 299 299 298 298 297 297 296 295
317 315 319 320 317 325 323 313 319 321 316 318 315 317 323 316 311 314 312 314 317 317 318 319 321 319 320 324 321 318 319 317 315 317 314 308 307 310 312 314 316 316 316 316 315 317 319 320 321 322 322 323 323 324 324 324 324 323 323 323 322 322 321 320 319 318 317 315 314 313 312 310 308 306 305 304 304 304 303 302 301 301 300 299 298 297 297 296 296 296 295 295 295 294 294 294 293
317 315 318 317 312 321 323 314 319 318 317 323 316 313 320 315 316 320 313 315 319 316 317 318 317 318 319 321 318 316 317 315 314 313 310 306 306 308 310 311 313 315 317 317 317 317 318 319 319 319 321 321 322 322 322 322 322 322 321 321 320 320 319 318 317 315 314 313 312 310 308 306 305 304 304 303 302 301 300 300 298 297 297 296 295 295 295 294 294 294 293 293 293 292 292 292 292
316 318 317 317 316 319 318 315 319 316 314 323 317 313 319 316 318 323 314 316 320 314 315 318 317 318 319 318 318 316 314 313 313 313 310 305 304 307 308 309 310 313 316 317 317 317 317 317 318 318 319 320 321 321 321 320 320 320 320 319 319 318 317 315 314 312 311 310 308 306 304 304 303 303 302 301 299 299 297 296 296 295 295 294 294 293 293 293 293 292 292 292 292 291 291 291 291
314 314 312 317 322 322 318 316 319 317 315 321 317 312 320 321 317 321 318 318 317 312 315 318 317 317 316 316 317 315 314 314 312 312 310 304 303 306 308 308 309 310 313 315 316 316 316 316 316 317 317 318 319 319 318 317 317 318 317 316 316 315 314 313 311 309 308 306 305 304 304 303 302 300 299 298 297 296 295 295 294 294 294 293 293 293 292 292 292 292 291 291 291 291 290 290 290
315 315 313 314 316 317 319 317 318 321 321 323 317 314 328 328 316 317 318 316 314 311 314 315 313 314 314 313 315 314 313 312 310 311 309 303 302 305 306 307 307 308 310 312 314 315 315 315 315 315 316 316 316 315 315 314 314 315 314 314 313 313 311 310 308 306 305 304 303 303 302 300 299 297 296 295 295 295 294 294 293 293 293 293 292 292 292 292 291 291 291 291 290 290 290 290 290
315 315 315 316 316 317 318 315 316 318 318 323 320 317 330 327 313 314 316 312 310 310 312 313 312 312 313 312 313 313 312 311 310 310 307 302 302 304 304 305 306 307 307 308 311 312 312 313 313 313 313 313 313 312 312 312 312 312 312 312 311 309 308 306 305 304 303 302 302 300 298 297 296 295 295 295 294 294 293 293 293 293 292 292 292 292 292 291 291 291 290 290 290 290 290 290 289
Wind_Speed
7 7 7 6 4 0 1 4 2 3 2 1 2 1 2 2 2 3 2 1 3 2 3 3 4 4 5 5 8 7 3 0 3 4 3 3 18 22 15 18 20 18 16 14 13 13 14 15 15 16 16 14 13 13 13 12 13 14 14 15 15 15 15 15 15 14 13 14 16 16 14 15 16 16 17 16 16 16 16 17 16 16 16 16 16 17 16 16 16 17 17 17 19 21 22 22 21
7 7 7 5 2 2 1 3 3 4 4 2 4 2 1 3 3 4 4 3 4 3 2 7 9 9 8 8 8 6 5 4 2 3 2 12 20 18 18 20 19 18 16 14 13 13 13 16 17 18 18 15 13 13 14 13 13 14 15 15 15 16 16 16 15 14 14 14 15 16 14 15 16 16 16 16 16 16 16 16 16 16 16 16 16 17 16 16 16 16 16 16 18 20 20 20 19
8 7 7 4 2 3 1 3 2 1 3 1 4 2 1 3 4 5 6 7 7 7 6 7 8 6 6 5 4 4 1 4 4 3 5 16 16 16 22 20 19 18 16 15 14 13 15 18 19 18 18 16 14 14 14 14 14 14 15 16 16 16 16 15 15 14 14 14 15 15 15 15 15 14 15 16 16 16 16 15 15 16 15 16 16 16 16 15 15 16 16 15 17 18 19 18 17
9 7 6 3 2 3 3 3 1 4 1 3 2 3 0 5 6 5 5 5 5 6 4 4 5 2 4 7 3 3 2 2 4 4 6 12 14 21 24 20 20 18 16 15 14 15 16 19 19 18 17 15 15 14 12 13 14 14 15 16 17 16 15 15 15 14 14 14 14 15 15 13 14 14 15 16 15 15 16 15 15 15 15 16 16 16 15 15 15 15 15 15 15 17 18 17 17
8 6 4 4 2 1 3 1 1 4 2 3 3 3 3 6 7 5 3 1 1 4 5 4 3 2 4 5 2 3 3 4 5 6 7 11 19 25 23 21 20 18 16 15 15 16 17 19 19 18 16 14 14 13 12 12 13 14 14 15 16 15 15 15 15 14 14 15 15 15 15 14 15 15 15 15 14 14 14 15 15 15 15 15 15 15 15 15 15 15 15 14 14 16 17 17 17
5 4 4 4 2 1 3 1 1 1 4 5 4 4 6 6 7 6 4 2 3 3 5 4 4 3 3 2 1 4 4 4 7 8 11 16 23 24 23 22 20 18 16 15 16 16 17 18 18 18 16 15 13 12 11 12 12 13 14 14 15 14 15 16 15 15 15 15 15 15 14 15 15 14 14 14 14 13 14 14 15 15 15 15 15 15 15 15 14 14 13 13 13 16 16 16 16
5 4 4 4 1 1 4 2 3 4 3 6 6 6 8 6 6 7 6 4 4 4 5 4 6 7 2 1 2 2 2 7 10 11 16 22 24 24 24 22 20 19 16 15 15 16 17 17 18 18 17 17 15 13 12 12 12 13 13 14 14 14 16 16 15 15 15 15 15 14 14 14 14 14 13 13 13 12 13 14 15 15 15 14 14 14 14 14 13 13 12 12 13 15 16 15 15
5 3 1 4 1 3 3 2 3 3 1 3 6 7 9 8 7 7 6 4 3 2 4 4 6 7 1 1 2 4 3 11 12 16 22 25 25 24 23 21 21 19 16 16 15 15 16 16 17 17 17 16 16 16 13 11 12 12 13 13 14 15 16 16 15 15 15 15 14 14 14 14 14 13 12 11 12 13 13 14 14 14 14 14 13 13 12 12 12 12 11 11 13 15 15 14 14
5 3 1 3 1 2 2 2 2 3 1 3 4 5 7 7 6 6 6 3 4 4 4 5 5 7 1 4 2 3 6 14 17 21 25 25 25 24 22 21 21 20 18 16 16 15 15 15 16 15 15 15 16 17 14 12 12 13 13 13 14 15 16 16 16 16 15 14 13 13 13 13 14 13 12 11 11 12 11 11 11 11 12 13 12 12 11 12 11 11 11 11 13 15 14 13 12
4 3 1 2 1 2 3 3 2 2 2 3 4 6 7 6 5 5 7 5 5 5 3 3 6 7 4 4 1 2 7 19 25 25 26 25 24 23 21 21 21 20 19 17 16 15 15 14 14 14 14 15 16 16 15 14 14 12 11 11 11 12 13 14 15 16 15 14 13 13 13 13 13 12 12 11 11 9 9 9 9 9 10 11 11 11 11 11 11 10 10 11 12 13 13 12 11
3 4 2 3 3 2 2 3 2 2 2 1 2 6 7 6 5 4 6 6 4 6 4 3 7 7 5 2 1 2 13 25 29 27 25 24 23 22 21 20 20 19 19 18 17 16 15 14 13 13 14 16 16 16 15 15 15 12 10 10 10 10 12 13 13 13 14 14 14 14 13 13 13 12 12 11 10 9 9 10 9 9 9 10 10 11 11 10 10 9 9 11 12 12 12 11 9
2 3 4 3 2 2 3 3 3 3 3 0 3 5 5 6 7 5 7 6 4 7 5 3 6 6 5 1 2 5 17 24 27 28 26 25 23 22 20 20 20 19 18 18 17 17 15 14 13 13 14 16 16 17 15 15 14 12 12 12 12 11 11 11 11 12 12 13 14 14 14 12 12 12 13 13 11 9 10 9 8 8 9 9 9 10 9 9 9 8 9 11 11 10 10 10 8
3 2 5 2 3 3 2 3 3 1 2 3 5 3 5 6 7 9 8 7 6 7 4 5 9 5 4 1 1 4 14 22 26 27 25 25 23 22 20 19 20 19 18 18 17 17 16 15 14 14 14 15 16 16 15 14 13 12 12 12 11 10 10 11 11 11 11 11 12 13 14 12 12 12 12 13 12 11 10 10 9 8 8 9 9 9 8 9 9 8 9 10 11 10 9 8 7
3 3 5 1 1 3 4 2 2 3 3 5 3 2 4 3 5 8 8 8 4 4 3 7 11 6 3 2 1 2 11 23 27 24 24 24 23 22 20 19 20 20 19 17 17 17 16 15 14 14 14 15 16 15 14 12 11 11 10 9 10 10 11 11 11 10 10 10 11 11 11 10 11 11 11 11 11 11 10 9 8 7 6 7 7 8 8 9 9 9 9 9 10 9 8 8 7
3 2 5 2 1 0 3 2 4 5 4 5 2 3 4 1 4 5 7 9 3 2 5 7 7 3 4 7 5 7 16 28 26 22 24 25 24 22 20 19 19 20 19 18 17 17 16 15 14 14 14 15 15 14 14 11 10 11 11 10 10 10 11 11 10 9 8 9 10 11 10 9 9 10 10 9 10 9 8 7 5 4 5 6 6 7 8 8 9 9 9 9 8 8 7 6 5
2 3 5 1 1 2 3 3 4 4 5 5 3 3 6 2 3 3 3 6 4 1 4 3 2 0 9 9 9 18 26 30 26 23 25 26 25 23 21 20 20 20 19 18 17 16 16 16 15 15 15 14 14 13 13 12 12 12 12 10 10 10 10 10 10 8 8 8 8 10 10 9 8 9 10 9 9 8 6 5 4 3 4 5 5 6 8 8 8 9 9 9 9 8 7 6 5
3 4 3 0 2 3 4 4 5 4 5 5 5 2 7 1 1 2 2 6 6 2 4 1 3 1 10 7 15 31 31 29 26 26 27 26 25 23 22 21 21 20 20 19 18 17 16 16 16 15 15 14 14 13 13 13 13 13 12 11 10 10 10 10 9 9 10 11 10 9 9 9 8 8 9 9 8 7 6 5 4 3 4 4 5 6 7 8 8 8 8 9 8 8 7 7 6
3 3 2 2 3 4 4 7 7 5 6 7 7 5 8 6 3 2 4 8 5 4 5 2 5 4 5 9 25 35 30 27 27 29 27 24 24 22 22 23 23 20 21 21 19 19 18 17 16 16 16 15 14 13 13 12 13 12 12 12 11 10 10 10 10 11 12 12 11 10 9 8 7 7 7 8 8 7 6 5 4 4 4 5 5 6 6 7 7 7 7 7 7 7 7 7 6
3 3 3 4 5 5 5 7 7 5 8 9 7 7 8 8 6 4 4 2 3 6 5 4 6 6 7 16 29 31 27 26 26 29 27 24 24 23 22 22 23 22 22 22 20 20 18 17 17 17 17 16 14 13 12 12 12 11 11 11 11 10 10 9 10 11 11 10 10 9 9 8 7 6 6 7 7 7 6 5 5 4 4 5 6 6 6 6 6 5 5 5 5 5 5 5 5
2 3 2 6 6 5 4 6 8 6 8 11 8 6 6 7 6 4 6 6 4 5 3 2 4 5 9 15 24 27 25 23 25 28 25 25 25 25 25 23 25 26 25 23 22 20 19 18 18 18 17 16 15 13 13 11 11 10 10 10 10 10 9 9 10 11 11 10 8 7 6 6 5 4 4 5 7 7 6 5 5 5 5 6 7 7 5 5 5 4 3 3 2 2 2 2 2
1 3 4 6 4 4 5 4 5 5 7 12 8 5 6 6 3 4 9 7 2 6 7 7 10 12 11 12 19 24 23 20 22 24 23 24 24 25 26 26 26 26 25 23 22 21 20 19 18 18 18 16 15 14 13 12 11 11 10 10 9 9 9 9 11 11 11 10 7 5 4 4 4 2 2 3 6 7 6 6 6 5 5 6 6 5 5 5 4 4 3 2 1 1 1 1 2
1 3 5 5 3 3 5 2 2 4 4 7 9 7 6 4 2 5 11 7 5 7 8 9 13 16 15 15 18 20 21 19 18 21 22 23 23 24 25 25 25 24 25 24 24 22 21 20 19 19 19 17 15 14 13 11 12 12 11 11 10 10 9 9 11 12 12 10 8 6 6 5 5 3 1 4 6 7 6 6 5 5 5 5 5 4 4 5 4 4 3 3 3 3 3 3 3
2 4 4 4 3 3 3 1 2 5 7 7 8 7 6 6 3 6 10 7 6 6 8 10 12 17 20 20 18 16 17 18 18 21 23 24 24 25 26 26 25 26 25 25 24 22 22 21 20 20 19 18 17 14 13 12 12 13 12 12 11 11 10 9 10 12 12 11 9 8 7 6 5 4 3 5 7 6 6 5 5 5 5 5 4 4 4 5 4 4 4 5 5 4 4 4 5
4 5 4 3 3 4 3 2 2 5 8 7 6 6 8 8 6 4 6 7 5 2 8 13 14 19 21 18 16 16 19 21 21 23 25 26 27 27 28 28 27 28 26 26 25 23 23 22 22 21 19 19 18 16 15 13 13 13 13 12 11 11 11 9 8 11 12 11 10 9 8 7 6 6 6 5 6 6 5 5 5 5 6 5 4 4 5 5 5 4 5 6 6 6 6 6 7
4 6 4 1 1 3 3 3 3 5 5 4 6 7 7 6 5 5 6 7 3 1 8 13 14 16 16 15 15 16 18 21 22 22 23 24 26 26 27 28 28 28 28 27 26 25 24 23 23 23 21 21 20 18 17 15 13 13 13 12 11 10 11 9 7 8 10 11 11 9 9 8 8 9 8 6 6 7 6 6 5 5 5 5 5 5 5 6 6 6 6 7 8 8 7 8 8
6 7 3 2 1 3 1 3 5 5 3 4 8 5 2 2 1 3 6 6 1 3 10 12 13 13 12 12 13 16 16 19 22 22 23 23 23 23 24 26 27 28 29 28 27 26 25 25 25 24 23 22 21 19 18 16 15 14 14 13 12 11 10 9 8 7 8 9 10 10 10 10 10 10 9 7 7 7 7 7 7 7 7 7 7 7 7 8 8 8 8 9 9 9 9 9 10
6 5 2 3 1 2 1 1 3 3 1 3 7 5 0 3 0 3 6 5 4 8 11 11 13 13 12 11 11 16 17 21 25 24 22 22 22 25 26 27 27 28 28 28 29 27 26 26 26 26 25 24 23 21 19 18 17 16 14 14 14 13 11 10 10 10 9 9 8 9 9 10 12 10 9 9 9 8 8 9 9 9 9 9 10 9 9 10 10 10 10 10 10 10 11 11 12
3 6 4 2 3 3 1 2 4 2 2 3 7 5 2 5 0 6 6 5 6 10 11 11 12 12 11 11 10 13 16 21 25 23 23 24 24 26 28 29 29 28 28 29 28 28 28 28 27 27 26 25 24 22 20 19 18 17 16 15 16 15 13 12 12 12 11 10 9 9 8 9 12 12 11 11 11 10 10 10 11 11 11 11 12 12 12 12 11 11 11 11 11 12 13 13 14
3 7 4 2 4 2 3 3 3 2 3 4 6 4 3 2 5 7 4 7 6 9 12 10 11 10 9 10 8 9 14 18 20 22 25 28 27 27 29 31 31 31 31 29 28 28 29 29 28 27 26 26 26 23 21 20 20 19 18 17 17 17 16 15 14 14 13 12 11 11 10 9 10 12 13 12 12 11 11 11 11 12 12 12 13 13 14 13 13 13 13 13 13 13 14 15 16
4 5 4 1 3 3 5 2 2 3 2 2 3 2 5 7 9 6 2 8 8 8 10 9 9 8 8 8 7 8 12 16 19 24 28 28 29 30 30 32 33 33 32 31 31 30 30 30 30 29 27 27 26 24 23 22 22 21 20 19 19 19 18 17 16 16 16 13 11 12 11 11 11 11 13 14 13 11 12 12 12 12 12 12 13 13 14 14 14 14 14 14 15 15 16 17 18
4 3 2 3 3 4 5 2 3 5 1 1 5 3 5 8 9 7 4 8 10 10 9 9 8 7 8 8 8 8 11 17 23 26 29 29 30 31 31 32 33 35 34 33 34 32 31 31 31 31 30 28 27 25 24 24 24 22 21 21 21 20 19 18 17 17 18 16 14 13 12 12 12 12 13 14 14 12 11 11 12 12 12 12 12 13 14 14 15 15 16 16 16 17 18 19 19
2 4 3 2 5 4 4 2 6 6 1 2 6 2 5 6 8 6 6 7 8 10 9 8 8 8 8 7 8 8 9 17 22 25 28 29 30 31 33 32 32 35 35 34 35 33 32 32 32 32 31 29 28 26 24 24 24 24 22 21 22 21 20 20 18 16 17 17 16 14 13 13 12 12 12 12 14 14 13 12 12 12 13 13 13 13 14 15 16 16 17 17 19 20 20 20 21
3 3 4 4 6 3 2 2 4 5 2 1 2 3 3 4 6 3 6 7 7 8 8 9 8 9 8 7 8 7 7 11 15 22 27 29 30 32 33 33 31 33 35 35 34 34 33 33 32 32 31 30 28 27 24 23 24 24 24 23 22 21 21 20 18 17 17 17 17 16 14 13 13 13 12 12 13 14 15 14 13 13 13 14 14 14 15 16 16 17 17 17 20 22 22 22 23
3 1 4 3 5 5 3 2 4 3 3 3 3 3 4 5 5 3 5 7 7 7 8 9 9 8 8 7 7 7 8 8 12 21 28 30 32 32 33 33 32 31 32 33 34 34 34 33 32 31 31 30 29 28 26 24 24 24 23 23 22 21 21 20 19 18 18 17 17 17 16 16 16 15 15 14 14 14 15 15 14 13 14 15 16 17 17 16 16 17 18 19 21 23 23 24 25
5 3 4 2 2 5 4 3 4 4 3 4 5 3 8 8 6 5 5 5 7 9 8 8 8 8 7 7 7 8 9 9 14 23 29 31 32 32 33 33 32 31 31 31 32 34 34 33 32 31 31 31 29 28 27 25 25 24 23 23 23 22 21 21 20 20 20 19 18 17 17 18 18 18 17 16 15 13 12 13 14 14 16 16 16 17 18 17 16 17 19 20 22 23 24 25 25
8 5 5 5 4 4 5 4 4 4 4 4 7 7 8 8 6 6 6 4 7 8 6 5 7 7 7 7 7 8 9 10 16 24 27 29 32 33 33 33 33 33 32 30 31 33 34 34 33 32 32 31 30 29 28 27 26 25 25 24 24 25 23 22 22 22 21 21 19 17 17 17 17 18 17 17 17 15 12 11 12 12 13 13 14 15 16 16 16 17 19 22 23 24 24 25 24
7 6 5 6 7 5 5 3 5 1 5 6 7 7 7 7 8 7 4 3 5 7 7 7 7 6 7 8 8 9 9 10 14 19 22 25 30 31 32 33 33 33 33 32 31 32 34 34 34 34 33 33 32 32 30 30 29 28 27 27 27 26 24 23 22 22 22 21 19 19 19 18 18 17 17 18 18 18 17 14 14 14 11 11 13 13 14 15 17 18 20 21 23 23 24 24 23
5 5 6 5 6 5 3 2 4 2 3 4 2 4 8 9 9 6 2 4 7 9 9 9 9 8 7 8 9 10 8 7 8 13 18 22 25 28 30 31 32 32 33 34 34 34 34 34 35 34 34 34 35 34 32 32 32 31 30 29 28 26 24 23 23 23 22 20 19 20 20 20 20 19 18 18 18 18 17 15 16 17 14 12 14 14 15 17 19 20 21 22 21 21 23 22 21
4 3 6 5 4 3 1 2 5 3 2 4 1 5 9 9 7 6 5 7 8 9 11 11 10 9 8 9 10 9 8 7 7 10 15 20 23 26 28 30 33 34 34 35 35 35 34 34 35 34 34 35 35 34 33 32 31 31 30 27 26 24 24 23 23 21 21 20 19 19 19 19 19 18 17 16 16 16 16 14 14 15 14 14 15 16 17 18 19 20 21 22 20 20 20 20 20
4 3 5 4 4 4 1 3 3 3 1 1 3 4 6 6 4 7 9 8 6 7 10 9 8 9 10 10 10 10 10 10 9 8 11 18 21 23 26 30 32 33 33 33 34 34 34 35 35 35 35 35 35 34 33 30 29 29 29 26 24 23 22 21 21 21 20 19 18 17 17 16 16 15 15 14 13 13 13 14 14 15 14 13 16 18 18 18 18 18 18 19 19 19 20 19 19
4 4 5 4 5 5 2 3 2 2 2 2 5 2 5 5 4 8 7 4 5 6 7 9 9 8 7 6 7 9 11 10 10 9 9 14 19 23 27 29 31 31 32 34 35 35 35 36 35 35 35 34 34 33 32 30 28 28 27 25 23 21 21 20 19 20 19 17 16 15 15 14 13 14 14 12 12 13 12 12 14 16 15 13 14 16 17 18 17 15 17 19 19 20 19 19 19
5 5 7 7 9 7 4 7 6 3 2 2 3 1 5 5 5 10 5 2 6 5 6 10 10 8 6 6 7 8 9 8 8 8 9 13 19 23 25 26 27 30 32 34 35 35 35 35 34 34 34 34 33 33 32 30 29 28 28 26 24 21 19 19 18 18 17 16 15 13 13 12 11 11 11 10 10 12 11 9 10 10 10 9 10 10 9 10 10 11 14 15 15 16 16 17 18
4 5 8 9 9 8 8 9 6 3 4 3 2 4 5 5 4 9 5 5 9 5 6 10 9 8 7 7 7 7 8 7 6 6 7 11 16 19 21 24 27 29 31 31 32 33 33 33 33 33 33 33 33 32 32 31 30 29 28 28 26 22 20 18 16 15 14 14 13 11 10 10 9 9 8 7 7 8 8 9 8 6 7 8 10 10 8 7 8 9 11 10 10 11 11 13 16
5 5 6 9 9 10 10 10 5 3 3 2 3 4 3 4 5 6 2 4 9 8 9 10 8 8 8 7 7 7 8 7 7 7 6 9 14 18 21 24 26 26 26 26 27 30 32 32 33 33 33 33 32 32 32 31 31 29 28 27 26 23 21 17 14 13 12 11 10 9 8 8 8 8 8 7 7 8 8 9 9 8 8 9 10 11 9 10 10 10 10 9 9 9 10 12 14
5 4 6 7 9 10 10 9 4 2 3 2 3 3 3 5 6 5 1 2 7 9 12 12 10 9 8 8 8 7 7 6 6 7 7 10 14 17 20 21 21 22 22 22 24 26 28 29 30 32 33 32 32 31 31 31 30 29 27 26 24 22 19 16 14 13 12 11 9 8 7 7 8 8 8 8 8 9 9 10 11 11 11 10 10 11 12 13 13 12 12 12 12 10 9 9 11
4 6 7 5 5 5 5 6 5 3 2 6 6 4 3 5 5 3 1 1 6 9 10 11 9 8 8 8 8 7 6 5 5 5 6 9 11 14 15 16 17 19 20 20 21 22 24 25 27 29 31 31 31 30 30 30 29 28 27 26 24 20 18 17 15 13 12 11 9 8 8 8 8 7 8 9 9 10 11 11 10 10 10 11 11 11 11 11 11 12 13 13 12 11 10 9 9
8 8 7 7 6 5 3 3 4 3 3 7 6 4 2 3 5 4 4 4 7 7 6 7 7 8 8 7 6 6 5 5 4 3 4 6 8 10 12 13 15 16 18 19 20 21 22 23 24 26 27 28 28 29 29 29 29 28 27 26 25 22 20 18 16 14 13 11 10 10 10 9 9 9 9 9 9 9 8 7 5 5 5 6 6 6 5 5 6 6 6 7 8 8 8 9 9
9 6 5 5 3 4 3 4 2 3 5 6 4 2 3 4 5 4 5 6 6 7 7 8 9 9 8 7 6 6 5 5 5 4 4 6 7 9 11 12 13 15 16 18 19 20 20 22 23 24 24 24 25 26 28 28 27 26 25 24 23 22 21 19 17 14 11 10 10 11 10 10 9 9 8 7 6 5 5 4 4 4 4 4 4 4 4 5 5 5 5 5 5 3 3 4 5
6 6 7 6 1 1 2 2 1 4 5 3 2 1 2 5 7 7 8 9 8 7 7 7 8 9 9 8 7 6 5 5 5 5 5 5 7 9 11 13 13 14 16 17 18 19 19 21 23 24 22 21 23 24 26 26 25 24 23 21 21 20 20 19 17 14 12 11 11 10 10 9 8 7 7 6 5 4 4 5 5 5 4 4 4 4 3 3 4 5 6 7 8 8 7 6 6
6 8 8 6 4 4 5 4 1 3 4 2 1 1 2 4 5 8 10 10 8 6 6 6 7 9 9 8 7 5 5 5 5 5 5 5 8 11 12 13 14 15 16 17 19 19 19 20 22 23 21 20 21 22 24 24 23 22 21 20 19 19 19 17 15 14 13 12 11 11 10 9 8 8 6 5 4 3 3 2 1 1 0 1 1 2 2 2 3 5 6 7 8 8 7 7 7
3 4 6 6 5 5 5 4 3 3 2 2 2 1 4 4 3 6 7 7 6 4 5 4 3 4 5 5 5 5 5 5 4 5 5 6 9 11 12 13 15 16 16 17 19 20 20 21 22 23 22 20 21 22 23 23 21 20 20 19 19 19 19 16 14 14 13 13 12 11 11 10 9 8 6 4 3 3 3 4 5 6 6 6 7 7 7 7 7 7 7 7 8 7 7 7 8
3 2 6 5 5 5 3 3 5 5 1 1 2 3 4 4 5 6 3 5 5 3 4 2 2 3 6 5 5 6 5 5 5 5 5 6 9 12 12 13 14 15 15 16 18 20 21 22 22 22 22 22 22 22 22 22 21 21 20 19 19 19 18 17 16 15 13 13 13 12 12 10 9 8 7 7 8 9 9 10 10 10 10 10 10 10 9 10 9 9 9 9 9 8 8 8 8
2 3 5 5 3 8 6 2 1 4 2 2 2 3 5 3 5 6 5 5 6 4 4 1 2 3 6 6 5 5 5 5 5 5 5 6 9 11 12 14 14 15 16 16 18 20 22 22 22 22 22 22 22 22 22 22 22 22 21 20 19 18 18 17 16 16 15 14 13 12 12 11 11 11 12 13 13 13 13 12 12 11 11 10 10 9 9 9 8 8 8 8 9 9 9 9 9
4 3 6 3 3 5 5 3 2 3 2 4 1 4 4 1 3 6 6 6 8 6 4 2 3 4 6 6 6 6 6 5 5 5 6 7 10 12 12 13 14 16 17 17 18 19 21 22 23 23 22 22 23 23 23 23 23 23 22 20 20 19 19 18 17 17 16 16 15 14 14 15 15 16 16 15 14 14 13 12 11 11 10 9 9 8 8 8 7 8 8 9 9 9 9 9 9
3 4 4 4 3 2 2 3 2 2 3 4 2 3 3 4 5 4 4 9 10 7 5 5 6 7 7 6 6 6 5 5 5 5 5 6 10 12 12 13 13 15 17 17 18 18 20 22 22 23 23 22 23 23 23 23 22 23 22 20 20 19 19 18 18 18 17 17 17 17 18 19 18 17 16 15 14 13 12 11 10 9 9 8 8 8 7 7 8 8 8 9 9 9 9 9 9
2 2 2 2 3 5 3 3 4 4 4 3 2 1 3 6 6 6 9 11 10 8 7 8 10 9 8 7 7 7 6 6 6 6 5 6 10 12 13 14 14 15 17 17 18 18 20 21 22 23 23 22 22 22 22 22 22 23 22 21 21 20 20 20 19 19 19 20 20 21 20 20 19 17 16 15 13 12 11 10 9 8 8 7 7 8 8 8 8 8 8 8 8 9 10 10 11
2 2 3 2 1 2 2 1 3 4 4 3 2 1 5 6 5 8 11 9 8 9 10 10 9 9 9 8 7 7 7 6 6 6 5 7 10 12 13 14 14 16 17 17 18 19 20 21 22 23 23 23 22 22 22 23 24 24 24 24 23 22 21 20 20 21 22 23 22 21 21 20 19 17 15 14 12 11 10 9 8 8 7 7 7 7 7 7 7 7 7 7 8 9 11 12 13
2 3 5 5 3 4 3 3 1 2 3 4 4 2 7 6 4 7 9 5 4 6 8 8 8 9 9 8 8 8 7 7 7 6 6 8 11 13 13 14 15 17 17 18 19 20 21 21 22 24 24 24 24 24 24 25 25 25 25 24 23 23 22 23 24 24 24 24 23 21 20 19 18 16 14 12 11 10 10 9 8 8 7 7 7 6 6 6 6 7 7 8 10 11 13 14 15
Wind_Direction
315 327 341 342 319 305 42 77 60 323 83 94 283 167 197 195 155 119 110 3 56 4 325 43 55 71 88 109 129 117 68 168 170 153 209 179 143 150 158 154 151 148 147 141 138 137 137 135 129 127 119 117 120 116 113 107 106 111 112 112 112 110 106 104 102 98 96 96 97 95 93 91 90 92 92 92 92 92 90 88 86 85 84 84 83 82 83 85 85 86 89 97 103 103 102 99 95
324 341 357 5 26 101 280 80 85 324 42 6 292 156 256 348 78 137 150 116 109 134 109 88 79 77 89 115 125 98 45 16 115 137 107 133 135 145 155 153 151 147 144 139 138 137 139 134 129 127 121 119 120 115 114 111 111 115 116 114 114 110 107 107 104 102 101 98 98 98 94 95 96 95 93 93 94 93 91 89 86 86 86 86 87 86 85 87 87 88 91 98 106 106 103 101 96
329 348 5 18 50 71 36 45 82 32 53 273 274 264 6 69 139 171 158 134 141 142 119 95 81 77 89 88 58 68 62 19 72 77 113 134 133 147 155 154 151 145 139 136 135 137 138 135 135 133 127 125 121 113 113 115 116 117 118 115 112 110 110 107 104 104 104 101 100 99 99 101 100 94 94 96 95 94 92 89 87 87 87 88 89 89 88 88 89 90 94 100 107 108 105 102 96
333 350 5 36 45 31 56 43 128 125 147 227 208 279 280 147 165 170 161 151 163 142 118 81 60 6 79 93 61 65 100 61 89 95 130 148 147 152 155 153 151 143 136 135 135 137 138 140 141 138 132 127 123 117 114 114 116 118 119 115 112 112 110 105 104 106 105 105 104 103 104 102 100 97 97 98 98 99 96 91 89 89 88 90 90 90 89 88 89 91 96 102 106 109 107 102 94
328 349 16 69 73 33 87 63 86 104 221 200 154 245 224 179 166 162 169 187 251 120 116 94 77 322 56 96 130 111 119 109 128 130 128 152 152 151 154 154 150 141 138 135 134 136 139 144 143 141 135 126 123 121 113 110 116 117 117 116 113 109 106 106 107 108 109 108 106 107 106 103 103 102 99 97 98 101 99 92 90 91 88 89 90 90 89 88 90 90 96 104 109 111 110 102 93
332 24 42 65 83 159 105 279 275 271 233 169 149 211 207 196 171 155 144 101 4 83 107 91 117 115 65 6 44 127 164 129 138 151 142 148 151 151 155 155 149 142 139 136 135 134 138 145 145 142 135 125 122 120 114 112 117 117 116 116 112 106 105 107 108 108 109 107 108 108 105 105 106 103 102 100 98 98 99 95 91 91 90 89 89 89 89 88 90 91 95 105 116 118 113 104 95
9 46 33 60 28 30 105 199 225 248 240 167 162 172 189 211 181 144 131 119 42 32 68 95 131 108 77 312 39 28 205 158 146 161 158 149 150 153 156 155 148 143 139 137 135 134 138 145 146 144 138 129 124 120 116 115 116 118 117 115 110 106 106 108 110 110 109 108 110 109 106 107 107 106 107 104 98 97 99 96 93 91 91 92 91 90 90 90 91 92 95 105 121 125 117 107 100
36 61 49 86 35 17 99 215 241 227 303 159 169 168 180 190 180 143 136 136 102 72 71 130 128 94 336 11 76 343 94 157 154 157 157 149 152 156 158 156 149 145 141 140 137 134 137 145 148 148 145 138 131 122 116 112 110 115 119 118 115 110 110 111 111 113 113 112 112 110 108 108 108 108 109 106 101 98 99 100 101 98 96 95 94 94 93 94 94 95 99 107 124 130 121 110 103
56 54 54 81 118 16 27 291 267 236 271 148 157 174 177 175 179 140 134 129 129 124 105 175 122 99 202 49 92 333 87 147 149 148 152 152 157 159 160 158 152 146 142 143 139 135 137 145 151 152 150 145 139 128 121 117 111 117 122 121 119 115 115 115 112 114 116 114 113 114 112 112 111 107 107 105 101 98 97 99 101 105 103 98 98 99 97 98 96 96 101 106 121 130 127 116 108
56 26 104 89 99 30 328 287 257 243 219 181 174 174 174 179 176 136 132 138 129 107 108 150 85 109 144 76 99 354 112 143 141 143 152 156 160 161 164 161 155 148 145 145 140 137 138 144 150 154 154 148 145 137 131 130 125 122 126 124 121 118 118 118 117 118 119 115 112 114 114 116 115 110 106 104 102 101 96 94 95 104 110 107 106 104 99 98 97 99 102 107 119 131 132 125 116
49 351 96 82 62 94 266 258 259 245 257 275 211 184 180 178 144 111 117 123 102 105 141 92 85 122 110 75 277 103 138 143 142 146 154 160 163 165 166 162 159 153 148 145 142 141 138 142 147 150 153 150 149 146 141 140 138 130 126 126 123 125 124 122 122 124 128 126 120 119 120 121 122 117 112 110 107 106 102 100 97 99 109 110 107 104 100 101 105 106 104 109 121 132 139 138 130
96 325 67 95 148 178 214 195 218 238 289 160 188 213 182 162 129 127 130 128 118 121 175 150 135 149 84 72 263 129 143 146 149 151 159 166 167 167 165 163 161 158 151 146 145 144 140 140 141 144 150 151 154 154 151 149 150 143 133 129 130 137 133 125 123 129 137 136 132 132 132 130 134 132 125 122 116 110 107 105 100 95 101 104 101 103 105 107 107 107 108 110 116 126 138 146 146
125 158 88 138 193 162 171 165 217 215 290 203 187 206 153 155 147 156 142 128 137 129 199 173 146 133 83 199 253 139 153 155 154 154 164 169 169 168 164 165 164 162 155 150 149 146 143 141 140 143 148 152 157 161 161 157 156 154 145 138 141 147 142 134 130 133 138 140 140 141 143 140 142 141 133 132 126 121 120 114 111 105 102 104 104 105 108 107 103 103 109 112 114 119 127 138 148
136 156 112 195 198 141 155 128 207 153 223 236 208 182 146 156 160 161 132 120 159 148 143 141 137 111 92 182 165 203 171 162 157 155 166 169 170 168 165 167 166 165 160 155 153 150 148 145 143 143 146 152 158 165 167 164 159 156 153 148 142 137 136 138 139 138 137 141 147 149 150 147 145 143 139 140 138 134 133 128 121 114 100 96 101 105 104 103 100 99 103 111 113 116 122 128 138
153 143 93 136 326 126 194 159 174 160 214 236 201 161 115 73 149 155 139 134 189 189 108 122 147 121 156 174 183 204 176 164 159 155 163 166 169 167 167 168 168 169 165 161 156 154 153 151 148 143 147 153 158 164 167 166 161 158 156 151 140 128 129 136 143 142 136 142 152 157 159 151 145 146 146 148 149 148 145 141 135 119 97 88 94 101 101 98 98 99 102 106 108 109 111 115 124
127 110 73 89 268 260 230 171 132 143 223 225 212 149 96 35 123 139 202 140 129 24 71 132 230 189 165 180 186 178 168 163 159 157 161 161 164 165 167 169 171 173 170 167 161 159 159 157 154 148 149 152 157 161 163 165 160 160 158 155 147 135 133 136 141 141 133 129 137 154 164 163 153 149 152 154 157 159 159 157 155 130 103 96 104 109 108 105 104 105 105 104 102 100 98 98 104
66 87 78 291 215 213 219 169 157 173 214 212 232 196 115 101 69 115 348 78 105 60 42 119 320 93 168 194 171 164 163 163 159 155 156 155 157 159 164 169 172 174 174 174 168 165 164 164 161 155 154 154 156 157 158 161 159 162 161 161 156 146 139 137 137 133 126 117 114 129 151 164 161 153 157 165 170 172 169 165 158 138 119 117 125 124 118 115 113 110 107 107 103 98 97 94 92
67 97 132 214 199 201 193 175 192 179 178 186 203 190 134 144 174 145 54 54 84 70 29 11 8 34 152 153 154 159 160 161 159 154 153 155 156 157 162 168 171 176 179 178 176 172 169 168 167 164 161 158 158 157 157 158 160 163 164 164 160 153 144 137 136 133 128 119 114 116 126 140 145 146 156 169 176 177 175 170 162 149 137 139 143 142 133 126 120 116 113 114 111 101 99 96 89
116 123 149 215 204 207 204 182 197 175 168 175 181 182 152 156 166 139 108 113 114 88 18 1 47 56 103 135 149 159 160 158 161 158 157 159 160 161 166 170 174 179 181 182 180 178 175 172 171 171 167 163 163 160 159 160 162 164 166 166 162 158 151 142 139 138 135 129 126 123 122 124 120 122 141 164 173 173 173 170 168 160 152 155 158 158 149 138 132 128 123 123 121 110 103 102 97
172 128 166 233 216 223 231 188 208 213 168 158 172 184 162 169 165 127 130 148 148 139 161 107 113 130 126 142 154 160 160 157 163 164 163 165 166 167 170 175 178 180 183 184 182 180 180 176 174 174 170 166 166 164 163 164 165 168 169 168 166 163 157 150 147 147 143 138 139 138 136 133 124 111 117 157 175 176 175 173 173 168 162 163 165 168 164 157 154 153 146 136 132 121 107 91 89
196 150 190 230 208 231 246 206 225 237 176 157 156 143 158 188 161 127 134 131 213 213 201 178 163 159 147 155 161 163 164 159 164 169 169 169 170 173 175 179 181 182 184 185 184 183 182 181 179 176 173 170 168 170 168 169 172 173 176 175 172 170 165 158 154 153 151 148 149 154 166 162 155 147 115 160 176 177 177 178 176 172 172 171 174 183 184 181 179 181 188 190 202 246 271 316 325
198 223 212 213 162 226 258 259 191 173 151 140 140 145 164 169 116 148 147 147 222 215 207 191 165 159 158 161 164 166 167 165 167 172 174 174 175 177 179 182 182 184 184 187 188 185 184 184 184 182 178 176 176 177 174 175 179 180 182 180 180 178 172 165 162 162 158 156 161 173 183 182 182 194 211 175 171 170 173 179 181 184 185 182 189 201 207 205 202 206 221 234 242 258 270 282 289
208 269 243 218 179 215 281 10 184 150 137 149 158 163 145 128 135 174 165 181 230 205 181 176 165 161 158 158 163 167 172 175 175 178 180 179 179 180 181 182 184 185 186 190 191 189 189 187 188 189 185 183 183 184 183 181 183 184 181 180 183 182 178 176 174 172 169 165 171 182 183 187 198 216 224 185 179 177 172 183 190 194 196 197 206 217 226 222 219 229 241 255 264 270 278 284 288
212 258 267 236 185 212 296 9 199 160 156 176 158 136 141 150 152 156 195 219 253 240 157 156 157 155 154 158 167 172 176 181 183 184 185 184 184 185 185 186 186 186 187 191 193 194 193 192 192 193 192 190 187 189 192 188 183 183 180 179 183 184 186 184 180 178 179 180 183 187 189 200 217 226 223 195 196 197 182 194 204 201 204 214 228 238 247 243 246 255 260 267 276 281 285 291 292
217 235 251 205 192 244 311 22 138 159 164 157 121 130 157 177 152 141 206 228 276 291 141 145 148 152 161 167 172 175 178 183 187 188 189 190 189 188 188 189 189 189 190 191 194 197 196 196 195 196 197 194 192 193 197 194 186 186 186 185 185 191 197 190 185 186 184 190 196 201 202 210 220 224 223 210 215 219 208 212 221 222 224 237 251 260 266 266 268 273 279 278 281 285 288 292 292
216 219 213 158 280 280 329 64 136 152 167 144 124 125 141 228 190 154 210 219 261 119 138 144 148 158 173 175 176 177 179 185 189 192 193 194 193 192 191 191 193 194 196 194 194 198 199 198 198 199 200 198 196 198 200 197 191 193 195 196 195 199 205 201 201 203 195 196 203 212 218 221 221 221 223 223 230 239 234 230 234 240 248 256 262 273 277 278 281 284 287 285 285 288 292 295 294
208 199 156 126 38 316 345 108 176 143 123 170 136 135 235 326 299 191 229 216 134 123 139 152 155 167 179 180 183 181 184 188 190 192 193 195 196 197 196 194 197 200 201 199 197 198 199 200 200 200 202 201 201 202 202 200 198 200 203 205 206 205 209 210 211 211 210 210 212 219 227 228 225 225 227 231 240 250 251 246 244 246 254 260 267 276 279 280 285 289 290 289 289 289 294 295 293
191 153 104 39 27 355 331 145 206 150 102 175 127 116 331 358 360 216 214 176 151 139 148 164 166 175 182 182 188 185 192 194 190 190 193 198 199 199 200 199 201 203 204 203 200 199 199 201 202 201 203 203 203 204 203 202 202 204 207 210 210 208 211 216 216 214 217 221 225 228 231 229 228 231 232 236 242 249 257 257 253 252 259 266 271 275 278 281 284 287 287 287 289 290 293 295 294
190 160 137 330 13 342 233 183 224 162 144 195 133 94 318 281 230 246 201 151 153 148 155 172 176 180 183 183 188 191 199 197 193 196 199 201 201 201 202 203 204 205 206 206 203 200 201 202 202 203 203 203 205 206 206 205 204 204 210 213 210 208 212 220 221 220 222 224 228 230 231 230 230 234 237 242 244 247 255 260 259 259 266 272 275 277 277 279 281 284 287 287 290 291 293 298 297
181 172 152 136 39 290 237 209 235 156 158 236 151 160 263 241 237 262 188 147 143 153 169 180 184 184 185 186 188 197 201 198 199 202 203 202 203 204 205 206 207 207 207 205 204 203 203 204 204 204 204 204 206 208 209 208 206 207 212 215 212 212 217 224 227 228 226 224 227 229 230 230 229 232 236 243 245 245 249 256 260 262 269 274 275 277 276 279 281 284 289 291 292 292 295 300 299
151 152 167 152 159 255 253 199 164 155 192 25 113 178 254 245 253 265 194 162 154 168 184 185 192 194 189 191 190 197 202 203 207 206 204 204 205 207 209 210 209 209 207 204 204 204 204 205 205 205 205 207 208 210 211 211 211 210 212 216 216 218 222 226 230 229 226 227 230 230 234 237 234 234 235 241 246 245 246 251 257 261 267 273 275 277 277 279 282 285 290 291 293 295 296 300 301
167 158 211 202 175 246 283 221 176 164 218 45 114 186 264 257 263 255 175 170 169 173 190 196 201 203 195 197 193 198 208 209 213 211 209 207 206 209 211 213 212 209 208 206 205 204 204 205 206 207 207 209 211 211 213 214 215 215 216 218 220 222 225 227 228 227 227 231 234 235 239 242 241 243 244 247 249 249 250 251 256 264 271 275 276 276 277 279 281 285 289 293 297 298 297 298 302
241 165 183 202 177 209 281 241 216 182 164 5 142 184 250 276 276 243 157 171 180 176 198 206 209 212 202 199 197 198 205 211 218 218 214 210 209 210 212 214 214 210 209 208 205 203 203 204 205 208 209 210 212 212 213 216 217 218 220 220 223 227 229 229 226 226 228 231 236 240 244 246 247 250 252 255 259 259 258 257 261 267 274 280 281 280 279 279 280 284 289 296 298 294 292 295 299
230 122 146 202 180 174 197 239 246 188 171 205 185 194 229 265 289 251 179 168 179 190 208 212 213 217 210 204 202 201 202 205 214 216 214 212 211 211 213 215 215 211 210 210 208 205 204 205 207 209 211 212 213 212 213 216 218 220 222 222 225 230 233 232 230 229 231 232 236 240 244 248 250 252 253 258 265 266 263 262 266 269 273 278 280 279 278 278 278 278 283 291 291 289 291 294 297
177 157 143 174 166 172 192 216 207 158 171 199 173 226 247 260 291 258 219 170 178 208 215 216 219 217 217 210 204 206 206 210 215 214 213 211 211 211 213 214 214 212 211 210 211 209 207 208 209 211 212 212 213 213 213 214 218 221 223 224 227 230 232 233 233 233 235 237 239 240 242 245 249 252 256 261 266 271 271 267 268 269 271 275 278 277 276 280 281 278 281 285 287 288 290 293 295
169 168 146 152 164 210 215 231 247 165 153 199 189 213 235 246 265 244 233 188 185 226 241 238 233 224 221 215 212 213 210 218 218 215 213 211 211 211 212 213 214 213 213 211 210 210 210 210 210 211 212 212 212 211 210 211 214 218 221 224 226 228 229 231 234 235 237 239 243 245 243 244 248 250 255 260 263 269 276 276 276 272 268 270 276 279 280 282 282 280 280 282 285 288 291 293 296
164 151 138 164 173 215 232 242 290 146 152 216 206 213 236 241 246 237 223 192 206 236 244 243 238 225 220 215 216 216 216 226 222 217 214 211 211 211 211 212 213 213 213 213 211 211 212 211 211 212 212 212 211 210 210 210 212 214 217 220 224 226 226 229 233 234 236 239 244 246 247 248 252 252 254 259 261 265 269 276 278 271 265 269 273 278 285 286 283 281 279 280 284 288 293 296 297
154 153 150 177 186 207 239 238 305 8 165 238 199 209 249 243 243 250 186 177 220 224 221 232 230 224 222 215 220 221 224 234 227 223 218 211 211 210 209 209 210 211 212 213 213 214 213 213 214 214 213 212 213 214 213 215 215 213 214 217 221 225 226 228 231 233 236 240 245 247 248 251 254 257 259 263 267 268 271 280 285 279 271 273 278 278 281 283 283 283 281 280 285 289 292 298 300
166 152 145 173 200 200 304 310 330 13 185 256 186 193 244 250 248 260 222 198 223 221 213 221 216 213 216 211 218 221 225 235 229 228 219 212 210 207 207 207 208 211 212 212 213 213 213 213 215 215 215 214 215 216 217 219 219 217 217 219 221 225 229 232 234 237 240 244 248 252 254 254 255 260 264 268 271 272 274 277 283 283 273 273 282 282 280 281 285 290 287 281 285 288 289 298 301
189 152 150 185 195 167 198 268 325 27 126 201 155 183 260 277 283 272 241 215 235 234 221 229 221 209 212 213 216 212 212 220 223 229 220 210 208 206 205 206 207 209 210 210 210 210 212 213 215 215 215 216 216 217 219 221 221 219 221 225 229 231 233 236 238 240 243 246 251 256 258 257 257 261 263 267 270 269 271 272 272 269 265 273 283 280 280 282 285 296 298 289 285 282 280 290 298
239 185 170 180 184 186 182 159 123 24 356 96 111 50 303 272 251 258 249 210 241 244 223 241 245 227 225 234 231 217 211 209 209 216 214 205 203 204 205 205 206 206 208 210 210 211 212 214 215 216 216 217 217 219 220 221 221 219 220 223 228 231 232 234 235 236 239 241 246 253 257 258 258 261 263 266 272 265 258 267 277 274 273 281 285 281 283 285 287 299 304 295 287 279 277 284 293
260 224 197 188 183 185 140 124 108 83 275 269 117 89 291 286 248 245 251 202 234 238 214 233 241 233 229 229 228 222 221 219 212 214 209 200 200 202 204 204 204 205 209 212 213 213 214 215 216 217 218 218 219 220 220 220 220 218 217 216 218 221 223 227 230 234 236 234 237 244 250 253 254 261 263 262 272 272 263 269 284 285 282 291 305 311 313 310 313 325 320 310 304 294 286 287 296
235 237 204 189 175 160 141 143 130 136 218 277 99 165 253 308 280 250 256 236 243 258 242 240 239 231 225 219 222 218 217 220 220 223 210 198 198 197 200 203 204 206 210 212 214 215 215 217 218 219 220 221 221 221 220 219 218 218 218 218 218 220 220 224 230 234 232 228 226 225 228 231 233 244 251 245 253 274 283 287 292 290 283 290 300 307 321 333 334 332 329 335 341 332 319 308 309
223 242 175 164 163 161 159 158 157 173 192 333 29 138 222 280 268 267 267 228 253 265 250 248 240 229 226 225 227 219 212 205 198 204 203 201 199 195 198 202 204 207 209 210 212 214 215 217 219 220 222 223 223 222 220 218 218 218 218 219 220 222 224 222 217 213 207 204 200 194 201 212 220 229 240 251 260 268 275 276 278 282 282 282 284 286 296 307 308 306 311 323 336 346 353 336 326
227 209 141 153 161 162 163 157 148 107 136 256 288 153 191 260 273 305 5 198 254 251 236 238 234 223 222 225 226 223 222 207 190 190 195 203 205 203 203 203 204 206 207 208 210 213 214 216 218 219 220 222 222 221 219 218 219 219 218 218 218 219 221 214 201 197 192 187 182 180 189 196 199 210 228 246 258 264 267 269 272 275 277 279 280 280 282 286 291 294 297 303 308 314 330 335 337
196 129 94 78 83 96 121 138 123 87 155 223 232 185 188 263 278 310 30 213 244 240 236 234 226 220 218 222 223 221 223 213 199 196 193 198 204 208 208 205 205 207 208 211 212 213 214 214 215 217 217 218 218 218 218 217 218 218 218 216 214 209 203 196 190 189 186 185 193 202 202 197 198 213 233 243 250 257 262 266 268 266 266 269 271 273 275 276 280 283 286 289 292 294 300 310 323
134 106 80 69 51 47 57 65 92 113 237 244 234 202 174 259 274 240 201 221 219 216 243 240 223 225 223 222 218 207 203 198 188 179 176 178 186 196 200 202 205 207 210 213 214 214 214 213 213 212 213 213 214 214 215 215 215 215 215 214 210 203 193 188 185 182 182 190 206 216 218 219 225 234 241 246 249 254 258 259 259 261 262 265 270 280 291 294 290 290 295 296 289 286 287 293 302
124 107 110 101 26 18 38 360 55 168 241 257 255 224 157 219 259 241 236 258 233 203 224 226 213 219 218 212 210 200 190 184 172 160 159 157 164 178 189 196 201 205 208 210 210 211 210 209 208 205 205 206 207 208 209 209 208 208 209 208 206 201 196 193 189 186 192 204 210 213 216 220 224 226 229 234 233 236 248 257 263 274 276 272 278 294 308 320 339 6 24 20 16 13 342 320 315
129 126 140 129 66 42 164 256 229 212 242 265 260 192 189 233 250 254 259 265 252 226 227 224 211 213 209 201 200 197 187 176 170 170 170 170 175 183 190 196 201 204 208 209 208 206 203 201 200 196 194 195 197 199 199 199 198 198 198 198 197 195 194 195 196 197 203 210 212 210 206 203 200 199 204 208 216 230 248 262 268 274 277 278 282 290 298 315 358 27 36 37 41 42 35 28 18
157 150 155 151 140 149 197 231 279 235 245 279 282 211 246 269 266 254 250 254 257 251 251 245 222 212 203 192 185 182 184 180 179 181 181 190 192 192 196 199 202 204 207 208 204 201 197 192 190 188 184 183 185 187 187 188 188 189 192 192 192 191 189 189 192 196 200 205 208 203 194 190 187 186 191 200 218 242 256 267 271 275 346 44 44 56 62 58 54 53 52 49 47 45 37 33 29
187 157 139 153 160 160 193 207 187 206 237 294 291 213 191 203 248 248 246 263 276 282 283 268 228 200 168 155 157 165 182 187 185 186 190 201 197 195 198 200 201 201 201 202 198 194 190 185 183 181 175 173 177 178 180 182 182 184 188 190 188 187 186 186 188 194 199 200 194 184 179 181 184 183 182 181 165 144 129 117 112 106 100 96 91 88 86 82 79 75 71 67 63 57 49 43 37
228 121 122 169 177 146 147 177 175 168 145 267 236 227 209 206 269 278 283 297 294 331 354 40 117 133 134 145 167 171 181 185 180 183 193 201 196 193 195 197 200 199 195 195 191 186 183 178 177 176 173 172 174 176 178 179 179 180 181 182 181 184 188 190 190 191 192 189 181 176 174 174 173 164 150 139 131 126 122 116 114 109 102 98 93 89 85 82 80 78 76 72 67 59 51 45 37
174 119 171 215 154 116 117 162 110 98 144 243 207 241 290 306 292 308 344 318 297 327 353 50 163 167 159 170 181 178 182 181 181 184 181 186 188 190 191 191 195 196 192 190 187 184 180 176 173 171 169 169 172 174 175 175 175 174 175 178 180 185 189 188 186 184 180 177 175 174 170 160 150 142 134 130 127 123 119 115 111 106 99 94 89 85 80 77 74 70 68 63 58 51 42 37 31
126 156 196 191 109 95 107 142 18 56 192 268 235 211 275 271 254 320 337 289 271 269 278 261 221 205 194 194 190 188 186 180 182 185 179 179 179 180 181 181 186 191 192 189 185 184 180 175 173 171 168 168 170 172 172 172 174 175 178 182 184 186 186 183 181 179 175 173 168 162 156 146 138 135 131 128 125 121 117 113 108 103 98 94 87 81 76 72 65 58 55 51 48 45 41 36 29
133 173 166 119 139 180 113 148 167 155 209 282 299 237 247 198 216 286 267 240 243 240 235 235 223 211 206 205 201 198 187 178 182 182 181 179 175 173 171 170 174 180 185 185 182 182 180 175 173 172 171 171 172 174 175 176 178 180 180 182 183 181 179 178 176 174 171 166 157 149 145 139 135 132 129 127 124 120 116 112 108 103 99 93 84 77 70 65 58 53 50 48 44 39 35 32 26
33 93 126 95 139 172 173 158 161 174 203 244 287 287 254 227 215 217 225 227 222 212 212 220 216 208 205 201 195 194 188 185 185 181 183 180 175 172 167 166 166 168 173 175 176 179 181 179 177 176 175 175 178 181 182 181 180 179 176 173 174 173 173 173 171 168 163 155 148 144 141 137 134 132 130 129 125 121 117 111 106 101 93 86 77 72 67 61 55 49 44 39 34 30 25 22 20
83 114 175 189 57 119 156 124 126 141 165 190 195 258 259 249 208 202 222 227 211 204 210 219 215 205 206 202 192 190 188 189 187 178 179 178 173 170 164 162 162 161 163 165 167 170 173 177 179 179 178 177 177 178 177 173 171 170 168 167 168 169 169 168 164 160 154 147 144 143 139 137 135 132 131 130 126 120 115 108 103 98 89 83 75 69 64 57 51 42 36 30 23 23 20 16 13
165 185 191 183 135 112 155 236 237 123 145 172 163 215 265 259 199 208 229 229 215 213 213 222 219 204 205 203 193 190 185 186 185 178 174 173 171 167 162 159 158 158 159 160 163 163 164 166 168 169 171 170 169 169 167 165 164 165 166 165 166 166 165 161 156 153 148 144 143 141 139 139 137 133 132 129 123 117 111 106 102 95 87 80 69 62 56 49 45 37 30 25 18 15 13 9 6